Weather History for Paganella, Italy

Change the Weather History Date:

Thursday, December 6, 2012

  Actual Average Record
Temperature  
Mean Temperature 12 °F -  
Max Temperature 16 °F 30 °F 41 °F (2003)
Min Temperature 8 °F 21 °F 8 °F (2012)
Degree Days  
Heating Degree Days 53    
Moisture  
Dew Point -4 °F    
Average Humidity 44    
Maximum Humidity 57    
Minimum Humidity 25    
Precipitation  
Precipitation 0.00 in 0.04 in - ()
Sea Level Pressure  
Sea Level Pressure 29.52 in    
Wind  
Wind Speed 7 mph ()    
Max Wind Speed 24 mph    
Max Gust Speed -    
Averages and records for this station are not official NWS values.
T = Trace of Precipitation, MM = Missing Value Source: Averaged Metar Reports

Daily Weather History Graph

Daily Weather History Graph

Search for Another Location

Airport:

Trip Planner

Search our weather history database for the weather conditions in past years. The results will help you decide how hot, cold, wet, or windy it might be!

Date:

Astronomy

Dec. 06, 2012 Rise Set
Actual Time 7:43 AM CET 4:30 PM CET
Civil Twilight 7:09 AM CET 5:04 PM CET
Nautical Twilight 6:31 AM CET 5:42 PM CET
Astronomical Twilight 5:55 AM CET 6:18 PM CET
Moon No Moon Rise 12:09 PM CET (12/6)
Length of Visible Light 9h 55m
Length of Day
8h 46m
Waning Gibbous, 52% of the Moon is Illuminated
Dec 6
Waning Gibbous
Dec 6
Last Quarter
Dec 13
New
Dec 20
First Quarter
Dec 28
Full

Hourly Weather History & Observations

Time (CET) Temp. Windchill Dew Point Humidity Pressure Visibility Wind Dir Wind Speed Gust Speed Precip Events Conditions
12:55 AM 15.8 °F 8.6 °F -4.0 °F 41% 29.42 in - East 4.6 mph - N/A   Clear
1:00 AM 16 °F - -4 °F 25%  in 37 mi East 4.6 mph - -  
1:55 AM 15.8 °F - -2.2 °F 45% 29.44 in - Calm Calm - N/A   Clear
2:55 AM 15.8 °F - -4.0 °F 41% 29.42 in - Calm Calm - N/A   Clear
3:55 AM 14.0 °F 5.1 °F -2.2 °F 49% 29.44 in - WSW 5.8 mph - N/A   Clear
4:00 AM 15 °F - -3 °F 30%  in 37 mi WSW 5.8 mph - -  
4:55 AM 14.0 °F 3.9 °F -2.2 °F 49% 29.44 in - SW 6.9 mph - N/A   Clear
5:55 AM 14.0 °F 5.1 °F -2.2 °F 49% 29.44 in - SW 5.8 mph - N/A   Clear
6:55 AM 14.0 °F - -2.2 °F 49% 29.44 in - Variable 2.3 mph - N/A   Clear
7:00 AM 14 °F - -2 °F 32%  in 37 mi 2.3 mph - -  
7:55 AM 14.0 °F 8.2 °F -2.2 °F 49% 29.44 in - NNW 3.5 mph - N/A   Clear
8:55 AM 14.0 °F 3.9 °F -2.2 °F 49% 29.47 in - North 6.9 mph - N/A   Clear
9:55 AM 15.8 °F 8.6 °F -4.0 °F 41% 29.50 in - North 4.6 mph - N/A   Clear
10:00 AM 16 °F - -3 °F 27%  in 37 mi North 4.6 mph - -  
10:55 AM 15.8 °F - -4.0 °F 41% 29.50 in - Calm Calm - N/A   Clear
11:55 AM 15.8 °F 4.2 °F -4.0 °F 41% 29.50 in - North 9.2 mph - N/A   Clear
12:55 PM 14.0 °F 2.0 °F -2.2 °F 49% 29.53 in - North 9.2 mph - N/A   Clear
1:00 PM 15 °F - -2 °F 30%  in 37 mi North 9.2 mph - -   Scattered Clouds
1:55 PM 14.0 °F 3.9 °F -2.2 °F 49% 29.53 in - North 6.9 mph - N/A   Clear
2:55 PM 14.0 °F 1.2 °F -0.4 °F 53% 29.56 in - North 10.4 mph - N/A   Clear
3:55 PM 12.2 °F -5.3 °F -2.2 °F 53% 29.56 in - North 18.4 mph - N/A   Clear
4:00 PM 13 °F - -3 °F 34%  in 37 mi North 18.4 mph - -   Scattered Clouds
4:55 PM 12.2 °F -5.3 °F -4.0 °F 48% 29.56 in - North 18.4 mph - N/A   Clear
5:55 PM 10.4 °F -9.9 °F -5.8 °F 48% 29.56 in - North 24.2 mph - N/A   Clear
6:55 PM 10.4 °F -9.1 °F -7.6 °F 44% 29.56 in - North 21.9 mph - N/A   Clear
7:00 PM 10 °F - -7 °F 29%  in 37 mi North 21.9 mph - -  
7:55 PM 10.4 °F -9.5 °F -7.6 °F 44% 29.59 in - North 23.0 mph - N/A   Clear
8:55 PM 8.6 °F -9.5 °F -4.0 °F 57% 29.62 in - NNE 17.3 mph - N/A   Clear
9:55 PM 8.6 °F -8.3 °F -5.8 °F 52% 29.62 in - North 15.0 mph - N/A   Clear
10:00 PM 9 °F - -5 °F 36%  in 37 mi North 15.0 mph - -  
10:55 PM 8.6 °F -9.5 °F -5.8 °F 52% 29.62 in - North 17.3 mph - N/A   Clear
11:55 PM 8.6 °F -8.3 °F -4.0 °F 57% 29.62 in - North 15.0 mph - N/A   Clear